Zurück zum Katalog

COSMOS 1660

AktivMilitärLEO
NORAD 15821·PAYLOAD·🇷🇺 Russia

Gestartet Jun 14, 1985 von Plesetsk Cosmodrome

Loading…

Nächste Überflüge (nächste 24 Stunden)

TLE

AktuellSource: Space-Track

Epoche: Sep 14, 2026, 23:06 UTC

1 15821U 85047A   26257.96278030 -.00000031  00000-0 -97790-4 0  9990
2 15821  73.6222  65.2062 0027767 298.9011 230.0370 12.40797816868610

Verfolge COSMOS 1660 in Echtzeit mit AllMySat

Download on the App Store